COSMOS 475

Satellite information

Favourite Embed

Satellite Type and Status

PAYLOADIN ORBIT

Key statistics

Satellite COSMOS 475 at a glance.

Uptime

19430

Days in orbit

Revolutions

≈ 13.8

Per day

Orbit

LEO

Low Earth Orbit

Inclination

74.0

Latest

Satellite identification and parameters

Extended collection of information and parameters for COSMOS 475.

Object identification

Identified? True

Debris? False

Object name: COSMOS 475

International designator: 1972-009A

Object number (NORAD): 5846

Object ID (CCSDS): 5846

Country: COMMONWEALTH OF INDEPENDENT STATES (CIS)

Current information (Y/N): Y

RCS size: LARGE

Orbital parameters

Period: 104.623 minutes

Inclination: 74.0479 deg

SMA: 7354.906 km

Apoapsis: 992.728 km

Periapsis: 960.813 km

RAAN: 87.6242 deg

Eccentricy: 0.0021696

Argument of periapsis: 86.6504 deg

Mean anomaly: 86.9665 deg

Mean motion: 13.76376077 rev/day

Mean motion (dot): 0.00000041 rev/day2

B* drag term: 0.000064189 1/REarth

Two-line elements (TLE)

Creation date: May 6, 2025, 3:54 a.m.

Reference frame: TEME

Reference center: EARTH

Epoch: May 5, 2025, 2:55 p.m. UTC

TLE line 0: 0 COSMOS 475

TLE line 1: 1 05846U 72009A 25125.62167931 .00000041 00000-0 64189-4 0 9998

TLE line 2: 2 05846 74.0479 87.6242 0021696 86.6504 86.9665 13.76376077671010

Live tracking on map

Real-time ground track for satellite COSMOS 475.

In-orbit conjunctions

A list of the most updated potential collisions computed for object COSMOS 475.

Target Orbit TCA Probability of collision Miss distance Type
COSMOS 1275 DEB LEO 2024-08-08 14:04:04 0.0002002207 69.0 (m) DEBRIS

Associated space launch

The first soviet navigation system called Tsiklon consisted of Zaliv satellites in low earth orbit.

COSMOS 475 was lifted into orbit during the mission ‘Kosmos-3M | Zaliv 10’, on board a Kosmos-3M space rocket.

The launch took place on Feb. 25, 1972, 7:52 a.m. from 132/2.

For more information about the launch, click the button.

Launch to space Kosmos-3M | Zaliv 10
Kosmos-3M | Zaliv 10

Agency: N/A

Status: Launch Successful

Launch date: Feb. 25, 1972, 7:52 a.m. UTC

Rocket: Kosmos-3M

Launch pad: 132/2

Location: Plesetsk Cosmodrome, Russian Federation

...

Latest news about this satellite

There are no fresh news available about this satellite. Check back as we update our databases every day.


Newsletter sign-up

Weekly statistics, charts and insights to help you stay on top of the space industry.